Regional Weather Roundup
Issued by NWS Wakefield, VA

Current Version | Previous Version | Text Only | Print | Product List | Glossary On
Versions: 1 2 3 4 5 6 7 8 9 10 11 12 13 14 15 16 17 18 19 20 21 22 23 24 25 26 27 28 29 30 31 32 33 34 35 36 37 38 39 40 41 42 43 44 45 46 47 48 49 50
000
ASUS41 KAKQ 230014
RWRAKQ

REGIONAL WEATHER ROUNDUP
NATIONAL WEATHER SERVICE WAKEFIELD VA
700 PM EST FRI FEB 22 2019

Note: "fair" indicates few or no clouds below 12,000 feet with no
significant weather and/or obstructions to visibility. * = Denotes
station may not report precipitation (e.g., rain,snow,etc.),
thunder or fog.

VAZ042-051-052>054-056-230100-
NORTHERN VIRGINIA

CITY           SKY/WX    TMP DP  RH WIND       PRES   REMARKS
WASH NATIONAL  CLOUDY    46  29  51 N8        30.43R
DULLES         CLOUDY    42  27  55 CALM      30.42R
FORT BELVOIR   FAIR      45  27  50 CALM      30.42R
QUANTICO       FAIR      47  30  51 NW3       30.44R
FREDERICKSBRG* CLOUDY    46  32  57 CALM      30.43R
STAFFORD*      FAIR      44  34  68 CALM      30.47S
WARRENTON      FAIR      41  32  70 CALM      30.42S
CULPEPER*      FAIR      41  33  73 CALM      30.44S
MANASSAS*      FAIR      41  33  73 CALM      30.42S
LEESBURG*      FAIR      43  32  65 CALM      30.43R
WINCHESTER     FAIR      36  30  80 CALM      30.42R
FRONT ROYAL*   FAIR      37  30  75 E5        30.40R
LURAY*         FAIR      41  34  75 N6        30.39S
$$

VAZ048-049-060>072-079>083-230100-
CENTRAL AND SOUTH CENTRAL VIRGINIA

CITY           SKY/WX    TMP DP  RH WIND       PRES   REMARKS
RICHMOND       LGT RAIN  45  40  82 CALM      30.43R
CHESTERFIELD*  LGT RAIN  44  43  96 CALM      30.43R
PETERSBURG*    CLOUDY    42  41  93 CALM      30.44R FOG
HANOVER        RAIN      45  40  82 CALM      30.43R
TAPPAHANNOCK*  LGT RAIN  44  38  81 CALM      30.44R
QUINTON*       CLOUDY    44  44  99 CALM      30.43R
CHARLOTTSVILLE CLOUDY    46  33  60 E5        30.38F
GORDONSVILLE*  CLOUDY    42  39  86 NE5       30.40S
ORANGE*        MOCLDY    43  36  75 CALM      30.41R
LOUISA*        CLOUDY    42  37  79 NE5       30.45F
BUMPASS*       CLOUDY    43  39  85 CALM      30.41F
FARMVILLE*     LGT RAIN  43  42  99 CALM      30.40R
CREWE*         CLOUDY    41  40  96 CALM      30.41S
FORT PICKETT*  CLOUDY    42  42 100 NE5       30.41S
CHASE CITY*    CLOUDY    42  42 100 CALM      30.40R
CLARKSVILLE*   CLOUDY    43  43 100 CALM      30.39R
SOUTH HILL*    CLOUDY    42  42 100 CALM      30.46R
LAWRENCEVILLE* CLOUDY    42  42  97 NE3       30.41R
EMPORIA*       CLOUDY    43  41  93 N3        30.43R
$$

VAZ088>098-230100-
SOUTHEAST VIRGINIA

CITY           SKY/WX    TMP DP  RH WIND       PRES   REMARKS
NORFOLK        LGT RAIN  44  39  82 NE8       30.40S
VIRGINIA BEACH LGT RAIN  42  39  89 NE6       30.40S
NORFOLK NAVAL  DRIZZLE   43  37  79 NE6       30.44R
WEST POINT*    CLOUDY    43  40  90 CALM      30.46R
SALUDA*        CLOUDY    42  42 100 CALM      30.44R
NEWPORT NEWS   LGT RAIN  43  39  86 CALM      30.43R
LANGLEY AFB    LGT RAIN  43  39  88 CALM      30.41R
FORT EUSTIS    LGT RAIN  44  37  79 N5        30.40R
WILLIAMSBURG*  MOCLDY    43  41  93 CALM      30.44R
HR EXEC AP*    LGT RAIN  42  40  92 CALM      30.43R
FRANKLIN*      RAIN      42  42  99 CALM      30.44R
US460-WAKEFLD  LGT RAIN  44  40  85 CALM      30.44R FOG
$$

VAZ020-022-025-037-045-230100-
WEST CENTRAL AND SOUTHWEST VIRGINIA

CITY           SKY/WX    TMP DP  RH WIND       PRES   REMARKS
STAUNTON*      CLOUDY    42  36  79 CALM      30.40S
WAYNESBORO*    CLOUDY    42  38  86 CALM      30.36F
HOT SPRINGS VA DRZL/FOG  39  39 100 SE5       30.31S VSB<1/4
LYNCHBURG      LGT RAIN  41  40  96 CALM      30.39R
DANVILLE       CLOUDY    44  42  93 NE7       30.38S
SOUTH BOSTON*  CLOUDY    43  42  96 NE3       30.40S
MARTINSVILLE   RAIN      43  43  99 CALM      30.40R
ROANOKE        LGT RAIN  44  42  93 SE3       30.40R
BLACKSBURG     LGT RAIN  43  43 100 E5        30.37R VSB 3/4
DUBLIN*        LGT RAIN  44  44 100 E6        30.34S
MARION*        LGT RAIN  45  45 100 E6        30.34R
HILLSVILLE*    CLOUDY    43  42  96 SE3       30.30S
RICHLANDS*     DRIZZLE   44  43  96 SE5       30.26S
WISE*          RAIN      46  46 100 SE7       30.26S
ABINGDON*      LGT RAIN  46  46  97 E8        30.28R
$$

MDZ021>025-VAZ099-100-230100-
SOUTHERN MARYLAND AND THE DELMARVA PENINSULA

CITY           SKY/WX    TMP DP  RH WIND       PRES   REMARKS
PATUXENT RIVER CLOUDY    44  33  65 CALM      30.43R
BAY BRIDGE APT FAIR      43  27  52 CALM      30.43R
LEONARDTOWN    CLOUDY    41  32  70 CALM      30.45S
DOVER          FAIR      40  29  64 NW5       30.42R
GEORGETOWN     FAIR      45  29  53 CALM      30.44R
EASTON         MOCLDY    45  28  53 CALM      30.46R
CAMBRIDGE      PTCLDY    43  30  61 CALM      30.44R
SALISBURY      FAIR      44  37  76 CALM      30.43R
TANGIER        CLOUDY    45  39  81 NW6       30.42R
OCEAN CITY     FAIR      41  33  73 CALM      30.44R
WALLOPS ISLAND CLOUDY    43  33  68 CALM      30.44R
ACCOMACK*      CLOUDY    43  39  85 CALM      30.43R
$$

NCZ012>017-030>032-230100-
NORTH CENTRAL AND EASTERN NORTH CAROLINA

CITY           SKY/WX    TMP DP  RH WIND       PRES   REMARKS
ROANOKE RAPIDS DRIZZLE   41  41 100 CALM      30.41R
RALEIGH        LGT RAIN  43  43 100 E6        30.38R FOG
ELIZABETH CITY LGT RAIN  44  39  82 NE8       30.40R
AHOSKIE*       LGT RAIN  42  41  95 N5        30.42R
EDENTON*       CLOUDY    45  43  92 CALM      30.41R
CURRITUCK*     DRIZZLE   43  40  88 MISG      30.41R
KILL DEVIL HLS DRIZZLE   44  42  94 N3        30.39R
MANTEO         LGT RAIN  44  42  93 NE13      30.40R
CAPE HATTERAS  CLOUDY    52  45  77 NE15G24   30.33R
TARBORO*       CLOUDY    44  43  97 NE5       30.40R
GOLDSBORO      MOCLDY    43  41  93 NE14      30.36F
WASHINGTON     CLOUDY    42  38  86 N8        30.39R
GREENVILLE     DRIZZLE   43  41  93 NE6       30.40R
NEW BERN       LGT RAIN  43  42  97 N13       30.37R FOG
WILMINGTON     CLOUDY    48  45  89 NE9       30.32R
$$

VAZ048-230100-
ELSEWHERE

CITY           SKY/WX    TMP DP  RH WIND       PRES   REMARKS
HARRISBURG PA  CLOUDY    41  24  51 CALM      30.41S
BALTIMORE      CLOUDY    44  26  49 N3        30.41R
ANNAPOLIS      FAIR      43  32  65 CALM      30.43R
ANDREWS AFB    FAIR      41  30  65 SE5       30.41R
PHILADELPHIA   CLOUDY    43  23  45 N7        30.43R
HENDERSON NC   RAIN      41  40  97 NE3       30.39R
GREENSBORO     LGT RAIN  44  44 100 NE9       30.35R FOG
ROCKY MOUNT    LGT RAIN  44  43  96 NE5       30.39R FOG
$$

VAZ100-230100-
MARINE

STATION/POSITION TIME  TEMP    WIND        PRES    WAVE   SWELL
                       AIR SEA DIR/SP/G            HT/PER HT/PER
                 (UTC) (F)     (DEG/KT/KT) (MB)    (FT/S) (FT/S)
BRANDYWINE LGT   2336                      1030.5R
CAPE MAY NJ      2342   42 40  330/  7/  9 1029.9R
LEWES DE         2342   43 41  360/ 10/ 12 1030.3R
15NM E FENWICK I 2350      43              1030.4R   2/ 7
OCEAN-CITY-INLET 2342   42 43   20/  3/  4 1030.9R
WACHAPREAGUE VA  2348   43 45   40/  2/  4 1029.8R
THOMAS POINT MD  0000   41 39     CALM     1031.2R
COVE POINT MD    2348   43     330/  4/  5   N/A
SOLOMONS ISLAND  2348   44 40  340/  2/  3 1030.4R
BISHOPS HEAD MD  2348   44 43  350/  3/  5 1031.1R
PINEY POINT MD   2336             CALM       N/A
POTOMAC MD       2354   41 40  310/  4/  4 1031.5
CAMBRIDGE MD     2342   44 42              1030.6R
LEWISETTA VA     2342   44 41   10/  3/  5 1030.9R
RAPPAHANNOCK LGT 2336           20/  3/  3 1030.7R
YORK RVR RNG VA  2336   44      10/  5/  6 1031.0R
YORKTOWN VA      2336   44 45   30/  4/  5 1029.7R
DOMINION TERM VA 2336   44      30/  3/  5 1030.1R
KIPTOPEKE VA     2336      44   80/  3/  3   N/A
CAPE HENRY VA    2336   43     360/  6/  8 1028.5R
WILLOUBY STN VA  2336   44      20/  7/  8 1029.4R
S CRANEY ISL VA  2336   44      50/  7/  8 1029.6R
CAPE HENRY BUOY  2330      44                N/A     2/ 7
1ST LANDING BUOY 2350   42      40/  6/  8 1030.0R
64NM E OF VA BCH 2350   49 50   40/ 14/ 16 1029.4R   3/ 5   2/ 7
DUCK PIER NC     2336   45 45   10/ 11/ 13 1028.8R
44100 DUCK FRF   2345      45                N/A     4/ 5
44056 DUCK FRF   2330      45                N/A     3/ 6
OREGON INLET NC  2336   45 49  360/ 13/ 17 1027.9R
HATTERAS NC      2336   49 55   30/ 14/ 21 1026.6R
CAPE LOOKOUT NC  0000           20/ 16/ 19 1026.6R
$$



USA.gov is the U.S. government's official web portal to all federal, state and local government web resources and services.